{"data":{"norad_id":26464,"intl_designator":"2000-045B","name":"CLUSTER II-FM8 (TANGO)","alt_names":[],"object_type":"PAYLOAD","status":"ACTIVE","operator":null,"country":"ESA","launch_date":"2000-08-09","launch_site_code":"TYMSC","launch_vehicle":null,"mission":null,"orbit_class":"UNKNOWN","rcs_meters":1.5887,"size_class":null,"mass_kg":null,"dimensions":null,"purposes":["science"],"wikipedia_slug":null,"has_3d_model":false,"image_url":null,"decayed_at":null,"tle_current":{"epoch":"2026-05-23T16:10:02.680032Z","epoch_age_seconds":185755,"freshness":"STALE","line1":"1 26464U 00045B   26143.67364213  .00003023  00000+0  00000+0 0  9995","line2":"2 26464 150.1185  47.6077 9031581 264.3140   3.6732  0.44403233 20201","mean_motion":0.44403233,"eccentricity":0.9031581,"inclination_deg":150.1185,"raan_deg":47.6077,"arg_perigee_deg":264.314,"mean_anomaly_deg":3.6732,"bstar":0,"rev_number":2020,"period_min":3243.0071026585,"perigee_km":650.24592027291,"apogee_km":131745.17413515,"semimajor_km":72575.847027711,"source":"CELESTRAK","updated_at":"2026-05-25T13:38:24.635992Z"}}}